Tracking 31027 objects as of 19-Jul-2025
HD Live streaming from Space Station
objects crossing your sky now

CANX-6

Track CANX-6 now!
10-day predictions
CANX-6 is classified as:


NORAD ID: 32784
Int'l Code: 2008-021B
Perigee: 567.5 km
Apogee: 582.1 km
Inclination: 97.8 °
Period: 96.0 minutes
Semi major axis: 6945 km
RCS: 0.1943 m2 (medium)
Launch date: April 28, 2008
Source: Canada (CA)
Launch site: SRIHARIKOTA (SRI)

CanX 6 is a 14-pound [6-kg] Canadian spacecraft designed to track ships using maritime navigation signals transmitted from sea vessels.
Your satellite tracking list
FENGYUN 1C DEB
Track 1 satellite(s)




NASA's NSSDC Master Catalog

Two Line Element Set (TLE):
1 32784U 08021B   25199.83373767  .00002513  00000-0  20813-3 0  9993
2 32784  97.8385 169.0770 0010496 128.6444 231.5720 14.99750812934186
Source of the keplerian elements: AFSPC